Probability
12 18 27 31 22 7 1 0 0 0 0 0 0 0 0 0 0 0 0 0 1 1 1 0 1 2 3 2 2 2 1 0 0 0 0 0 1 2 1 0 0 1 0 0 1 3 5 7 9
13 21 29 26 15 4 0 0 0 0 0 0 0 0 0 0 0 0 0 0 0 1 1 1 0 1 2 2 1 1 0 0 0 0 0 0 1 2 2 1 1 1 1 0 2 4 5 6 6
14 22 25 17 6 1 0 0 0 0 0 0 0 0 0 0 0 0 0 0 0 1 2 2 1 0 1 1 0 0 0 0 0 0 0 0 1 2 2 1 1 1 1 0 2 3 3 3 2
15 18 17 8 2 0 0 0 0 0 0 0 0 0 0 0 0 0 0 0 0 1 2 2 1 0 0 0 0 0 0 0 0 0 0 0 0 1 1 1 0 0 0 0 1 1 1 1 1
13 12 9 3 0 0 0 0 0 0 0 0 0 0 0 0 0 0 0 0 0 1 2 1 1 0 0 0 0 0 0 0 0 0 0 0 0 0 0 0 0 0 0 0 0 0 0 1 2
10 7 3 0 0 0 0 0 0 0 0 0 0 0 0 0 0 0 0 0 0 1 1 1 1 1 0 0 0 0 0 0 0 0 0 0 0 0 0 1 1 1 1 1 1 0 0 1 2
7 4 1 0 0 0 0 0 0 0 0 0 0 0 0 0 0 0 0 0 0 0 0 0 0 1 1 0 0 0 0 0 0 1 1 2 2 2 2 3 3 3 4 4 2 1 1 1 1
3 2 0 0 0 0 0 0 0 0 0 0 0 0 0 0 0 0 0 0 0 0 0 0 0 1 1 0 0 1 1 1 2 3 4 5 6 5 5 6 5 5 5 4 2 2 3 3 3
1 0 0 0 0 0 0 0 0 0 0 0 0 1 1 1 0 0 1 1 2 1 1 0 1 1 0 0 1 2 2 3 4 5 6 7 6 6 6 6 6 5 4 3 2 3 3 3 3
0 0 0 0 0 0 0 0 0 0 0 0 0 1 2 1 1 1 2 3 3 4 3 2 2 2 1 0 1 2 2 4 5 5 5 5 4 3 2 3 5 5 4 4 3 3 3 3 2
0 0 0 0 0 0 0 0 0 0 0 0 0 1 2 2 2 3 3 4 5 5 5 4 4 3 2 1 1 1 1 3 4 3 3 3 2 1 1 3 5 5 4 5 5 4 3 3 3
0 0 0 0 0 0 0 0 1 0 0 0 0 0 2 3 3 3 3 5 6 6 7 6 5 5 4 3 1 0 0 1 2 2 2 2 2 2 2 4 5 5 4 5 6 4 4 4 4
0 0 0 0 0 0 0 0 0 0 0 0 0 0 2 4 4 3 3 4 5 6 7 8 7 6 7 6 4 2 3 3 3 3 3 4 4 3 4 5 6 5 4 4 5 5 5 5 4
0 0 0 0 0 0 0 0 0 0 0 0 0 1 2 5 5 3 3 3 4 5 8 9 9 8 8 8 8 6 6 7 6 5 6 7 6 6 7 9 9 6 4 5 6 5 5 5 4
0 0 0 0 0 0 0 0 0 0 0 0 1 2 4 6 6 4 3 3 4 6 9 11 9 8 8 9 10 9 8 7 6 7 9 9 8 8 10 10 10 8 5 5 6 6 6 5 4
0 0 0 0 0 0 0 0 0 0 0 0 1 3 5 6 6 4 3 4 5 9 11 10 8 9 9 10 11 11 9 7 7 9 11 11 8 7 8 7 8 9 8 5 5 5 5 5 4
0 0 0 0 0 0 0 0 0 0 0 0 2 4 6 7 6 4 3 4 7 13 15 13 11 13 12 10 12 12 11 10 11 14 16 15 12 9 8 6 7 9 9 6 5 5 4 3 3
0 0 0 0 0 0 0 1 1 1 1 2 4 6 8 9 8 5 3 4 10 17 21 19 17 17 15 12 12 12 11 12 14 17 18 18 16 13 12 10 9 9 9 8 7 6 3 2 2
0 0 0 0 0 0 1 3 4 3 3 5 6 8 9 10 10 7 3 4 11 22 27 26 22 19 17 15 13 12 12 12 14 17 17 17 15 14 13 13 12 11 12 11 10 7 3 2 2
0 0 0 0 0 0 2 5 5 4 4 5 7 8 9 11 12 11 7 6 13 24 28 26 21 19 18 16 13 11 10 11 13 16 18 18 15 14 12 13 13 14 15 15 14 10 7 5 6
0 0 0 0 0 0 2 5 6 5 4 5 7 8 10 11 14 15 14 12 16 22 25 25 24 23 21 17 13 10 9 10 12 17 22 22 18 15 14 14 15 15 16 17 16 14 12 11 11
0 0 0 0 0 0 1 4 7 7 6 6 7 8 10 13 16 17 17 17 17 20 24 30 33 31 26 19 14 12 12 12 13 17 21 23 21 18 17 17 17 16 16 16 16 15 16 15 13
0 0 0 0 0 0 0 3 8 10 8 7 7 7 10 14 16 17 18 17 16 18 26 36 41 38 31 24 20 18 16 15 15 16 17 19 22 21 21 21 19 18 18 18 17 16 16 15 13
0 1 1 1 1 0 0 2 8 12 10 8 7 7 10 14 17 18 20 20 18 18 25 36 44 44 36 28 24 22 20 18 17 16 16 19 22 23 22 21 20 21 21 21 19 17 16 15 13
0 1 2 2 1 0 0 3 8 10 9 8 7 8 10 15 19 22 25 25 21 19 23 35 47 48 40 29 23 22 22 20 16 15 17 21 23 22 21 22 23 24 24 22 19 18 17 16 15
0 0 1 1 1 0 1 4 7 9 10 9 9 10 12 16 21 26 27 26 22 21 25 35 46 49 41 30 25 23 22 21 17 16 19 21 21 21 22 24 26 26 25 21 19 19 17 16 15
0 0 0 0 0 0 2 4 8 10 12 13 13 14 13 15 20 25 26 23 22 25 29 36 43 46 40 32 29 27 27 26 23 22 22 21 19 19 21 25 26 26 25 24 23 21 17 15 14
1 1 1 1 1 0 1 3 8 11 13 16 18 17 15 15 18 21 22 22 23 29 33 37 42 44 40 36 33 32 32 32 30 28 26 24 21 19 20 24 26 26 26 27 27 24 19 15 15
0 0 0 1 2 1 0 2 7 11 14 18 20 20 18 18 19 21 22 23 27 32 38 42 46 47 45 42 38 36 36 37 36 32 29 27 25 23 23 25 27 29 28 28 28 24 20 19 19
0 0 0 1 3 1 1 2 5 9 12 18 22 22 19 18 19 23 25 26 29 35 41 46 49 50 49 46 43 39 38 39 38 33 29 28 27 26 25 25 27 30 31 29 27 24 22 21 20
Wind_Speed
8 11 9 6 4 5 15 15 15 14 14 14 15 15 17 16 12 10 7 8 10 11 11 12 12 12 13 13 14 14 14 14 14 14 14 14 13 14 14 13 13 13 14 14 14 14 14 15 14
9 10 9 5 1 10 14 14 14 14 12 14 16 17 17 17 14 11 8 7 10 12 12 11 11 12 13 13 13 13 13 13 13 13 14 13 13 13 13 13 13 13 14 14 14 14 14 14 13
11 13 7 1 11 13 14 13 12 12 11 13 16 16 13 12 12 10 8 7 11 13 12 11 12 13 13 13 13 13 13 13 13 13 13 13 13 13 13 13 13 13 13 13 13 14 13 13 12
8 7 2 7 16 15 14 12 12 12 12 13 14 12 13 13 11 11 9 9 11 13 13 12 13 13 12 12 12 12 12 12 12 12 12 12 13 13 13 13 13 13 12 12 12 13 12 11 10
8 4 5 12 15 14 13 12 13 13 14 16 18 16 15 13 12 11 9 9 11 13 13 12 12 12 12 12 11 11 11 11 11 11 12 12 12 12 13 13 13 12 12 11 11 11 11 10 9
6 2 6 12 15 14 12 12 13 14 14 15 17 15 12 10 10 9 9 9 11 13 13 11 11 12 12 11 11 10 10 10 10 10 11 11 11 11 11 12 12 12 11 11 11 10 9 9 8
5 2 8 14 13 13 12 12 13 12 12 12 14 14 10 9 9 9 8 9 9 11 12 10 10 10 12 11 10 10 9 9 9 9 9 10 10 10 10 10 11 11 11 11 11 10 9 8 6
2 3 8 13 13 14 12 13 13 13 12 10 10 11 11 10 10 9 8 8 8 9 9 10 10 9 9 9 10 9 9 8 8 9 9 9 9 9 10 9 10 10 10 10 9 9 8 6 5
1 5 7 12 13 13 13 13 13 14 13 13 15 17 15 13 12 9 8 8 7 8 7 8 8 8 8 9 9 9 8 7 6 6 8 6 5 6 7 9 11 9 8 8 7 7 6 5 4
5 7 9 12 13 13 13 13 13 13 14 15 16 16 14 12 10 9 8 8 7 6 6 7 6 6 6 6 6 4 5 5 4 3 4 3 3 4 7 10 10 8 7 7 6 5 5 4 3
8 10 10 13 13 13 12 12 12 13 13 14 15 15 12 11 10 8 8 8 8 5 6 8 7 5 5 4 4 3 2 3 4 4 3 3 3 3 4 4 5 4 5 4 5 4 2 2 1
7 9 9 12 12 12 12 13 14 14 15 15 14 13 12 11 10 9 9 9 7 6 8 8 7 5 5 4 3 2 2 3 3 3 3 3 2 2 2 1 2 2 2 2 2 1 1 1 0
6 8 10 10 11 12 13 14 15 15 16 15 14 13 11 10 10 9 9 9 8 6 7 8 7 6 4 3 1 3 3 3 4 2 3 3 2 2 2 1 1 1 1 2 2 1 1 1 1
4 7 9 10 11 11 13 13 14 15 15 15 13 11 10 10 10 9 8 8 8 7 8 7 6 5 4 2 1 1 2 2 3 3 3 3 3 2 2 1 1 1 1 1 1 1 1 0 1
5 7 8 9 10 11 13 10 12 14 14 13 12 11 11 10 9 9 8 7 7 7 7 6 5 5 3 2 1 1 2 3 3 3 3 3 3 2 1 1 1 0 1 1 1 1 0 1 1
8 8 8 8 9 10 8 10 10 11 13 12 11 11 10 9 9 9 9 7 7 7 6 4 4 6 3 1 1 1 1 2 2 2 3 2 3 2 1 1 1 1 1 1 1 1 1 1 0
9 8 8 9 7 9 7 12 12 12 13 12 11 11 11 10 8 9 9 8 8 7 6 4 4 5 3 2 1 1 1 1 1 2 2 2 2 2 1 1 1 0 0 0 0 1 1 0 0
6 6 4 7 7 7 7 13 13 12 13 13 12 12 11 11 9 9 9 9 9 7 6 4 4 4 3 2 1 0 1 1 1 2 2 2 1 1 1 1 0 0 1 1 1 1 0 0 1
7 5 4 5 5 5 7 12 15 13 12 13 13 12 11 11 11 10 9 9 9 8 6 5 4 3 2 1 1 1 0 1 1 2 3 3 1 1 1 0 1 0 0 0 0 0 1 0 0
9 7 6 6 7 4 7 10 13 14 14 14 13 13 13 12 12 11 9 8 8 8 6 5 4 4 3 2 1 1 0 0 1 1 2 2 1 0 1 1 0 1 1 0 0 0 0 1 1
10 9 6 5 8 8 7 7 12 13 12 13 13 13 13 13 13 12 10 9 9 9 7 6 5 5 4 3 2 2 1 0 1 2 2 2 1 1 1 1 0 0 0 1 0 0 1 1 1
10 10 8 7 7 6 9 5 10 12 12 13 13 13 13 14 13 12 11 9 9 9 8 6 6 5 4 3 2 3 2 1 1 1 2 2 1 1 2 1 1 1 0 0 1 1 1 1 1
11 9 9 10 9 7 8 6 8 11 10 10 12 12 13 14 14 13 12 10 9 9 9 8 7 6 4 3 2 2 1 1 1 1 2 1 1 2 2 2 1 1 0 0 1 1 1 1 2
11 10 9 9 9 11 10 8 7 9 13 14 15 14 13 14 14 13 12 10 9 9 8 9 8 6 5 4 3 2 1 1 0 1 1 1 1 1 2 2 2 1 1 1 1 1 1 1 2
12 10 7 7 9 10 10 7 6 12 13 13 14 14 14 13 14 13 13 11 9 9 8 8 9 7 6 5 4 3 2 1 1 1 1 1 1 1 1 2 1 1 1 1 1 1 1 1 1
13 14 10 8 10 8 8 7 5 10 11 10 10 12 14 14 14 14 13 12 11 10 9 9 9 8 7 6 4 3 3 2 1 1 0 0 0 1 2 2 2 1 0 1 1 0 1 0 1
14 14 14 12 13 10 5 3 5 9 10 11 11 12 13 13 14 13 13 12 11 10 10 9 10 8 7 6 5 4 3 2 1 2 1 0 1 1 2 2 1 1 1 0 1 0 1 1 1
16 13 10 10 9 11 8 7 7 10 11 12 11 11 11 11 13 14 13 13 11 9 9 9 9 8 7 6 5 5 4 3 2 1 1 1 1 1 2 1 1 1 1 1 1 1 1 1 1
15 16 12 10 9 10 7 4 4 9 9 10 11 10 11 10 11 11 11 11 11 10 10 9 9 9 7 6 5 4 4 4 2 1 1 1 1 1 1 1 1 1 1 1 1 0 0 1 1
14 15 14 10 8 8 7 2 4 7 8 8 10 10 9 8 8 10 11 11 10 9 9 9 9 8 7 6 5 4 4 3 3 2 1 1 1 1 1 1 1 1 1 1 1 0 1 1 1
Wind_Direction
207 216 216 232 230 73 64 62 61 62 59 55 57 62 57 50 58 81 89 80 88 89 89 81 73 75 79 82 83 84 86 85 84 84 86 86 90 93 95 98 100 102 104 105 109 112 112 112 113
223 224 223 240 68 71 65 65 63 64 69 70 65 67 66 63 72 90 89 89 92 90 85 82 80 81 83 84 84 84 85 86 86 86 86 86 90 94 96 98 100 103 106 105 108 109 110 111 112
241 241 256 85 62 69 73 72 75 73 70 76 73 61 56 68 72 85 101 102 92 90 88 87 86 86 85 85 86 85 84 84 87 89 89 88 88 92 94 97 100 101 103 105 106 107 108 110 112
249 230 220 74 71 69 76 83 87 85 78 78 81 73 65 68 84 96 104 96 93 94 92 91 89 89 89 87 85 84 83 83 86 90 93 92 91 91 94 98 100 101 103 104 106 107 109 111 115
239 259 98 81 79 77 76 79 81 81 77 77 81 86 81 79 92 99 100 97 96 98 99 99 94 94 96 93 89 86 85 85 89 94 96 97 95 93 96 100 101 101 103 106 107 108 112 116 120
256 239 88 87 84 83 82 85 86 85 87 92 95 93 89 96 99 100 91 88 94 100 104 109 106 105 106 102 97 93 90 90 93 98 101 104 103 100 100 100 102 102 105 106 111 117 123 122 124
260 49 88 95 94 87 82 82 85 89 90 92 102 101 103 104 102 93 91 90 93 99 110 117 119 120 118 111 108 103 100 98 101 110 113 115 114 112 109 106 104 102 102 105 107 111 120 129 133
280 50 77 92 94 94 91 83 84 91 84 92 106 104 117 119 115 104 93 85 86 93 100 113 119 126 129 122 120 117 117 116 112 120 126 127 128 127 125 118 112 107 106 109 113 115 119 126 147
29 62 65 87 97 104 103 98 95 90 85 74 76 101 116 122 121 116 104 93 82 83 88 102 111 127 128 127 129 137 131 131 135 136 144 145 138 131 133 118 121 117 115 116 121 129 136 147 165
89 86 79 90 100 107 109 111 111 104 97 90 92 104 118 124 123 119 118 111 101 95 95 93 94 102 109 111 127 140 131 130 131 108 116 131 118 116 115 123 130 131 132 131 142 151 159 182 179
81 90 95 96 104 110 111 110 107 108 108 109 113 120 125 124 120 114 106 100 100 102 95 89 80 64 81 95 112 104 109 115 116 111 106 104 99 108 115 129 136 143 151 157 157 171 187 188 182
94 102 97 100 107 108 106 100 91 93 103 114 120 126 130 129 123 117 110 110 108 99 91 93 93 75 62 67 81 104 109 109 106 102 96 91 87 93 100 112 127 143 148 156 153 138 141 141 70
102 109 109 110 112 107 105 101 101 102 108 116 123 128 129 125 119 114 115 114 108 98 92 84 83 82 75 64 36 81 87 99 100 95 92 92 88 79 71 70 87 119 122 135 121 110 123 143 142
128 120 121 123 119 117 108 111 113 115 120 125 130 132 128 122 122 117 113 111 113 110 101 96 92 86 79 83 76 74 98 108 109 111 100 99 103 97 93 85 61 89 101 110 115 115 129 97 74
170 154 147 140 139 132 125 113 116 129 133 136 138 135 127 124 123 121 115 117 119 112 106 108 116 104 97 99 158 130 121 121 116 112 107 109 109 108 109 118 118 83 104 112 112 117 124 129 105
208 191 169 157 157 148 145 125 135 148 146 144 144 139 134 131 133 128 124 127 117 114 113 121 121 117 111 80 21 15 71 85 96 110 111 108 103 108 99 98 101 93 106 141 146 153 121 88 100
213 210 173 159 170 153 151 141 154 169 156 152 152 147 146 146 145 136 139 137 124 117 118 118 103 117 121 120 122 99 81 80 117 110 115 111 100 101 102 71 72 330 100 99 68 91 87 86 120
217 215 189 165 165 163 152 140 154 173 166 159 160 156 158 156 156 149 148 143 134 132 132 131 122 123 135 145 132 105 121 142 131 111 115 118 120 106 88 143 155 296 48 50 64 49 42 255 234
245 217 201 152 157 170 167 153 160 177 171 164 165 164 164 162 160 157 157 151 144 141 140 142 143 136 136 157 142 142 134 128 109 116 112 105 95 79 83 70 83 101 104 95 96 242 255 242 189
245 233 197 163 155 194 194 176 164 175 179 173 169 169 167 165 162 160 160 159 151 146 146 146 150 150 159 153 150 170 166 108 128 98 107 118 123 152 177 129 213 101 124 65 297 51 314 268 167
246 244 231 189 170 204 206 189 165 181 181 173 172 171 172 171 168 166 168 169 163 159 160 165 160 156 172 168 173 166 143 26 81 114 125 130 136 150 52 77 315 312 210 169 218 219 212 264 285
246 240 244 226 209 216 213 208 184 182 185 179 177 176 176 170 168 168 172 172 170 165 164 156 152 153 163 175 190 180 167 163 148 139 139 147 172 168 148 183 208 248 293 92 239 173 234 244 281
251 255 254 251 244 246 231 233 184 174 182 191 190 187 179 171 171 171 174 172 174 170 164 157 150 154 160 173 188 190 175 178 151 131 116 152 172 179 178 171 192 198 240 256 294 35 275 258 261
250 251 256 259 257 246 234 232 174 182 184 193 191 190 182 175 171 170 170 166 173 170 165 160 154 158 163 172 179 174 204 210 134 127 144 203 186 197 191 164 174 176 203 210 204 256 255 270 293
232 234 234 240 245 245 235 230 171 168 177 186 184 182 179 177 171 169 167 167 171 170 167 158 154 162 168 174 180 170 189 190 183 222 210 222 177 172 186 155 162 176 201 188 188 203 257 259 276
224 232 237 239 247 242 221 217 166 152 162 163 170 174 176 175 172 171 169 169 173 172 166 160 155 162 168 175 178 172 171 192 193 192 231 212 82 118 139 122 122 132 181 164 150 229 245 270 291
231 232 245 254 263 267 233 177 162 153 156 157 166 171 172 171 169 169 168 170 176 174 169 168 159 159 167 172 168 166 170 184 170 154 200 183 66 108 98 111 119 125 130 76 101 38 341 31 3
241 239 239 243 256 264 253 202 197 171 172 165 167 169 166 168 167 167 168 167 172 171 165 160 152 154 164 168 173 169 169 172 157 148 150 118 79 58 89 116 108 100 86 81 83 61 56 52 25
224 236 242 251 254 252 253 241 174 171 178 169 164 158 156 163 165 163 163 163 165 166 166 159 154 156 164 166 162 152 156 161 160 161 131 125 89 88 120 103 94 86 70 86 104 86 77 74 343
237 237 237 241 254 266 264 231 120 158 170 169 153 141 143 153 155 152 153 153 162 164 159 154 153 155 157 155 152 155 148 150 152 150 138 143 154 165 128 104 85 82 81 81 77 355 42 44 329